Perryton, TX

5:16 AM CDT on June 23, 2017 (GMT -0500)
Perryton Ochiltree County

Weather History for KPYX - October, 2013

Change the Weather History Date:

Monday, October 28, 2013

  Actual Average Record
Temperature  
Mean Temperature 60 °F -  
Max Temperature 73 °F 67 °F 91 °F (2016)
Min Temperature 46 °F 37 °F 23 °F (1993)
Degree Days  
Heating Degree Days 6    
Growing Degree Days 10 (Base 50)    
Moisture  
Dew Point 49 °F    
Average Humidity 68    
Maximum Humidity 94    
Minimum Humidity 51    
Precipitation  
Precipitation 0.00 in - - ()
Sea Level Pressure  
Sea Level Pressure 29.91 in    
Wind  
Wind Speed 15 mph (South)    
Max Wind Speed 26 mph    
Max Gust Speed 31 mph    
Visibility 10 miles    
Events      
Averages and records for this station are not official NWS values.
T = Trace of Precipitation, MM = Missing Value Source: NWS Daily Summary

Daily Weather History Graph

Daily Weather History Graph

Search for Another Location

Airport or City:

Trip Planner

Search our weather history database for the weather conditions in past years. The results will help you decide how hot, cold, wet, or windy it might be!

Date:

Astronomy

Oct. 28, 2013 Rise Set
Actual Time 8:02 AM CDT 6:50 PM CDT
Civil Twilight 7:36 AM CDT 7:16 PM CDT
Nautical Twilight 7:05 AM CDT 7:47 PM CDT
Astronomical Twilight 6:35 AM CDT 8:17 PM CDT
Moon 2:07 AM CDT (10/28) 3:24 PM CDT (10/28)
Length of Visible Light 11h 40m
Length of Day
10h 47m
Waning Crescent, 34% of the Moon is Illuminated
Oct 28
Waning Crescent
Nov 3
New
Nov 9
First Quarter
Nov 17
Full
Nov 25
Last Quarter

Hourly Weather History & Observations

Time (CDT) Temp. Dew Point Humidity Pressure Visibility Wind Dir Wind Speed Gust Speed Precip Events Conditions
12:15 AM 46.9 °F 32.2 °F 57% 29.93 in 10.0 mi SSE 9.2 mph - N/A   Clear
12:35 AM 47.7 °F 32.9 °F 57% 29.92 in 10.0 mi South 10.4 mph - N/A   Clear
12:55 AM 49.3 °F 32.9 °F 53% 29.92 in 10.0 mi South 10.4 mph - N/A   Clear
1:15 AM 48.4 °F 33.1 °F 56% 29.92 in 10.0 mi SSE 10.4 mph - N/A   Clear
1:35 AM 48.6 °F 33.8 °F 57% 29.92 in 10.0 mi South 11.5 mph - N/A   Clear
1:55 AM 49.3 °F 34.7 °F 57% 29.91 in 10.0 mi South 11.5 mph - N/A   Clear
2:15 AM 48.2 °F 34.9 °F 60% 29.91 in 10.0 mi SSE 10.4 mph - N/A   Clear
2:35 AM 47.8 °F 35.8 °F 63% 29.91 in 10.0 mi South 10.4 mph - N/A   Clear
2:55 AM 48.6 °F 37.2 °F 65% 29.92 in 10.0 mi SSE 10.4 mph - N/A   Clear
3:15 AM 48.2 °F 37.8 °F 67% 29.92 in 10.0 mi South 9.2 mph - N/A   Clear
3:35 AM 50.2 °F 38.8 °F 65% 29.92 in 10.0 mi South 11.5 mph - N/A   Clear
3:55 AM 50.0 °F 39.4 °F 67% 29.91 in 10.0 mi South 11.5 mph - N/A   Clear
4:15 AM 50.9 °F 39.4 °F 65% 29.91 in 10.0 mi South 12.7 mph - N/A   Clear
4:35 AM 50.4 °F 39.7 °F 67% 29.91 in 10.0 mi South 12.7 mph - N/A   Clear
4:55 AM 50.0 °F 39.6 °F 67% 29.91 in 10.0 mi South 10.4 mph - N/A   Clear
5:15 AM 49.5 °F 39.6 °F 69% 29.91 in 10.0 mi South 11.5 mph - N/A   Clear
5:35 AM 49.3 °F 38.8 °F 67% 29.91 in 10.0 mi South 11.5 mph - N/A   Clear
5:55 AM 50.4 °F 38.7 °F 64% 29.91 in 10.0 mi South 12.7 mph - N/A   Clear
6:15 AM 49.5 °F 38.3 °F 65% 29.91 in 10.0 mi South 9.2 mph - N/A   Clear
6:35 AM 48.9 °F 38.3 °F 67% 29.91 in 10.0 mi South 10.4 mph - N/A   Clear
6:55 AM 49.1 °F 38.5 °F 67% 29.91 in 10.0 mi South 12.7 mph - N/A   Clear
7:15 AM 49.1 °F 38.7 °F 67% 29.92 in 10.0 mi South 11.5 mph - N/A   Clear
7:35 AM 48.9 °F 39.0 °F 69% 29.92 in 10.0 mi South 11.5 mph - N/A   Clear
7:55 AM 48.0 °F 39.2 °F 72% 29.92 in 10.0 mi SSE 12.7 mph - N/A   Clear
8:15 AM 48.4 °F 40.1 °F 73% 29.93 in 10.0 mi South 11.5 mph - N/A   Clear
8:35 AM 50.0 °F 41.2 °F 72% 29.94 in 10.0 mi South 12.7 mph - N/A   Clear
8:55 AM 51.4 °F 42.3 °F 71% 29.94 in 10.0 mi South 11.5 mph - N/A   Clear
9:15 AM 52.7 °F 43.0 °F 70% 29.95 in 10.0 mi South 11.5 mph - N/A   Clear
9:35 AM 55.8 °F 45.1 °F 67% 29.96 in 10.0 mi South 13.8 mph - N/A   Clear
9:55 AM 58.5 °F 46.9 °F 66% 29.96 in 10.0 mi South 15.0 mph 21.9 mph N/A   Clear
10:15 AM 59.5 °F 47.5 °F 64% 29.97 in 10.0 mi South 18.4 mph - N/A   Clear
10:35 AM 61.9 °F 50.2 °F 65% 29.97 in 10.0 mi SSW 20.7 mph 25.3 mph N/A   Clear
10:55 AM 62.4 °F 51.1 °F 66% 29.97 in 10.0 mi South 20.7 mph - N/A   Clear
11:15 AM 64.0 °F 51.1 °F 63% 29.96 in 10.0 mi South 20.7 mph - N/A   Clear
11:35 AM 64.0 °F 51.3 °F 63% 29.96 in 10.0 mi South 17.3 mph - N/A   Clear
11:55 AM 65.7 °F 52.5 °F 62% 29.95 in 10.0 mi South 18.4 mph 24.2 mph N/A   Clear
12:15 PM 69.1 °F 54.0 °F 58% 29.94 in 10.0 mi South 19.6 mph 24.2 mph N/A   Clear
12:35 PM 69.4 °F 53.4 °F 57% 29.95 in 10.0 mi South 20.7 mph - N/A   Clear
12:55 PM 70.2 °F 54.5 °F 57% 29.94 in 10.0 mi South 19.6 mph 24.2 mph N/A   Clear
1:15 PM 72.7 °F 54.5 °F 53% 29.94 in 10.0 mi South 20.7 mph 26.5 mph N/A   Clear
1:35 PM 71.4 °F 54.7 °F 55% 29.93 in 10.0 mi South 18.4 mph 25.3 mph N/A   Clear
1:55 PM 73.4 °F 54.9 °F 52% 29.91 in 10.0 mi South 17.3 mph 26.5 mph N/A   Clear
2:15 PM 73.6 °F 54.9 °F 52% 29.90 in 10.0 mi SSE 19.6 mph 26.5 mph N/A   Clear
2:35 PM 73.4 °F 54.5 °F 51% 29.89 in 10.0 mi South 21.9 mph 26.5 mph N/A   Clear
2:55 PM 73.4 °F 54.5 °F 51% 29.88 in 10.0 mi South 19.6 mph 24.2 mph N/A   Clear
3:15 PM 73.2 °F 54.7 °F 52% 29.88 in 10.0 mi South 20.7 mph 31.1 mph N/A   Clear
3:35 PM 72.9 °F 54.5 °F 52% 29.88 in 10.0 mi South 21.9 mph 29.9 mph N/A   Clear
3:55 PM 71.8 °F 54.7 °F 55% 29.87 in 10.0 mi SSE 20.7 mph - N/A   Clear
4:15 PM 71.8 °F 54.9 °F 55% 29.87 in 10.0 mi SSE 21.9 mph 28.8 mph N/A   Clear
4:35 PM 70.9 °F 55.0 °F 57% 29.87 in 10.0 mi SSE 23.0 mph 28.8 mph N/A   Clear
4:55 PM 70.0 °F 55.0 °F 59% 29.87 in 10.0 mi South 26.5 mph - N/A   Clear
5:15 PM 69.8 °F 55.4 °F 60% 29.87 in 10.0 mi South 24.2 mph 31.1 mph N/A   Clear
5:35 PM 69.1 °F 55.4 °F 62% 29.88 in 10.0 mi SSE 21.9 mph 29.9 mph N/A   Clear
5:55 PM 66.7 °F 56.5 °F 70% 29.88 in 10.0 mi SSE 24.2 mph - N/A   Clear
6:15 PM 65.5 °F 56.7 °F 73% 29.88 in 10.0 mi SSE 24.2 mph 28.8 mph N/A   Clear
6:35 PM 64.0 °F 56.5 °F 76% 29.88 in 10.0 mi SSE 18.4 mph - N/A   Clear
6:55 PM 63.0 °F 56.8 °F 80% 29.89 in 10.0 mi SSE 20.7 mph - N/A   Scattered Clouds
7:15 PM 63.1 °F 57.7 °F 83% 29.90 in 10.0 mi SSE 23.0 mph - N/A   Mostly Cloudy
7:35 PM 63.1 °F 57.9 °F 83% 29.91 in 10.0 mi South 23.0 mph - N/A   Overcast
7:55 PM 63.0 °F 58.8 °F 86% 29.90 in 10.0 mi SSE 21.9 mph 27.6 mph N/A   Overcast
8:15 PM 62.6 °F 60.1 °F 91% 29.92 in 7.0 mi SSE 20.7 mph 28.8 mph N/A   Overcast
8:35 PM 63.0 °F 60.8 °F 93% 29.91 in 7.0 mi SSE 21.9 mph - N/A   Overcast
8:55 PM 63.0 °F 61.2 °F 94% 29.92 in 5.0 mi SSE 24.2 mph 29.9 mph N/A   Overcast
9:15 PM 63.0 °F 61.3 °F 94% 29.92 in 4.0 mi SSE 23.0 mph 28.8 mph N/A   Overcast
9:35 PM 63.3 °F 61.7 °F 94% 29.91 in 5.0 mi SSE 24.2 mph 29.9 mph N/A   Overcast
9:55 PM 63.7 °F 61.7 °F 93% 29.90 in 7.0 mi SSE 24.2 mph 31.1 mph N/A   Overcast
10:15 PM 64.0 °F 61.7 °F 92% 29.91 in 7.0 mi SSE 24.2 mph 31.1 mph N/A   Overcast
10:35 PM 64.4 °F 61.7 °F 91% 29.91 in 10.0 mi SSE 24.2 mph 29.9 mph N/A   Overcast
10:55 PM 64.8 °F 61.7 °F 90% 29.91 in 10.0 mi SSE 21.9 mph 28.8 mph N/A   Overcast
11:15 PM 64.9 °F 61.7 °F 89% 29.91 in 10.0 mi SSE 21.9 mph 29.9 mph N/A   Overcast
11:35 PM 64.8 °F 61.5 °F 89% 29.91 in 10.0 mi South 23.0 mph - N/A   Overcast
11:55 PM 65.3 °F 61.0 °F 86% 29.91 in 10.0 mi South 20.7 mph 26.5 mph N/A   Overcast